Погода в Оленино

Россия / Тверская область     56°12′31″N   33°28′45″E
темп.,
°C
ветер,
м/с
пор.,
м/с
влажн.,
%
обл.,
%
осадки,
мм/ч
давл.,
гПа
погр.,
м
15 мая, сб
сб1500:00+11вюв3896100 0.0 1009211
03:00+10в3799100 0.0 1008185
06:00+12вюв3697100 0.1 1006302
09:00+14ю3791100 0.8 1006475
12:00+20ююз475841 0.0 10061521
15:00+19ю566482 1.4 10051281
18:00+17ююз47775 1.5 1005928
21:00+12ююз39942 1.6 1006213
16 мая, вс
вс1600:00+11ююз389655 0.0 1006161
03:00+10ююз389883 0.0 1007212
06:00+11ююз399779 0.0 1008286
09:00+15юз468351 0.0 1009562
12:00+19юз456752 0.4 10101281
15:00+19юз456859 2.6 10101088
18:00+18юз247750 1.9 1011476
21:00+14ююз229235 2.6 101221
17 мая, пн
пн1700:00+12ююз229594 0.1 101322
03:00+11ююв2295100 0.1 101312
06:00+12вюв2595100 0.0 1013119
09:00+17юв4680100 0.0 1013445
12:00+20юв4662100 0.0 10121104
15:00+23вюв585730 0.0 10101571
18:00+23вюв5116682 0.0 10071267
21:00+19юв6158297 0.5 1006616
18 мая, вт
вт1800:00+17вюв51591100 0.5 1005588
03:00+16вюв51391100 0.5 1004502
06:00+16юв51491100 0.1 1003532
09:00+19юв6138574 1.4 1002717
12:00+23ююв7136682 0.1 10021677
15:00+14ю71385100 0.3 10031122
18:00+18ююз487186 0.1 10041081
21:00+14ю2393100 0.3 100674
19 мая, ср
ср1900:00+12ююз2397100 0.1 100650
03:00+11зсз129887 0.1 100541
06:00+12ссз1396100 0.0 1005104
09:00+14ссз2387100 0.3 1004484
12:00+13зсз4795100 1.9 1002443
15:00+10зсз71493100 3.2 1002763
18:00+9з61596100 10.8 1003785
21:00+9з61593100 16.3 1004865